Cocoa Beach, FL

10:34 AM EDT on October 17, 2017 (GMT -0400)
Patrick Air Force Base

Weather History for KCOF - October, 2011

Change the Weather History Date:

Tuesday, October 4, 2011

  Actual Average Record
Temperature  
Mean Temperature 78 °F -  
Max Temperature 84 °F 82 °F 87 °F (2012)
Min Temperature 73 °F 73 °F 68 °F (2015)
Cooling Degree Days 14    
Growing Degree Days 28 (Base 50)    
Moisture  
Dew Point 61 °F    
Average Humidity 55    
Maximum Humidity 64    
Minimum Humidity 44    
Precipitation  
Precipitation 0.00 in - - ()
Sea Level Pressure  
Sea Level Pressure 30.12 in    
Wind  
Wind Speed 10 mph (NNE)    
Max Wind Speed 14 mph    
Max Gust Speed -    
Visibility 10 miles    
Events      
Averages and records for this station are not official NWS values.
T = Trace of Precipitation, MM = Missing Value Source: NWS Daily Summary

Daily Weather History Graph

Daily Weather History Graph

Search for Another Location

Airport or City:

Trip Planner

Search our weather history database for the weather conditions in past years. The results will help you decide how hot, cold, wet, or windy it might be!

Date:

Astronomy

Oct. 04, 2011 Rise Set
Actual Time 7:16 AM EDT 7:05 PM EDT
Civil Twilight 6:53 AM EDT 7:28 PM EDT
Nautical Twilight 6:26 AM EDT 7:55 PM EDT
Astronomical Twilight 5:58 AM EDT 8:23 PM EDT
Moon 2:34 PM EDT (10/4) 12:32 AM EDT (10/4)
Length of Visible Light 12h 35m
Length of Day
11h 48m
First Quarter, 56% of the Moon is Illuminated
Oct 4
First Quarter
Oct 11
Full
Oct 19
Last Quarter
Oct 26
New
Nov 2
First Quarter

Hourly Weather History & Observations

Time (EDT) Temp. Heat Index Dew Point Humidity Pressure Visibility Wind Dir Wind Speed Gust Speed Precip Events Conditions
12:55 AM 76.5 °F - 63.3 °F 64% 30.11 in 10.0 mi North 10.4 mph - N/A   Clear
1:55 AM 75.7 °F - 62.2 °F 63% 30.11 in 10.0 mi NNE 8.1 mph - N/A   Clear
2:55 AM 75.4 °F - 61.0 °F 61% 30.11 in 10.0 mi NNE 9.2 mph - N/A   Clear
3:55 AM 74.8 °F - 61.3 °F 63% 30.09 in 10.0 mi North 9.2 mph - N/A   Clear
4:55 AM 74.3 °F - 59.9 °F 61% 30.10 in 10.0 mi North 10.4 mph - N/A   Clear
5:55 AM 73.8 °F - 59.4 °F 61% 30.10 in 10.0 mi North 10.4 mph - N/A   Clear
6:55 AM 73.6 °F - 58.8 °F 60% 30.12 in 10.0 mi North 9.2 mph - N/A   Clear
7:55 AM 74.3 °F - 58.8 °F 58% 30.13 in 10.0 mi North 5.8 mph - N/A   Clear
8:55 AM 78.6 °F - 58.8 °F 50% 30.14 in 10.0 mi NNE 9.2 mph - N/A   Clear
9:55 AM 80.6 °F 81.0 °F 58.5 °F 47% 30.16 in 10.0 mi NNW 8.1 mph - N/A   Clear
10:55 AM 82.4 °F 82.5 °F 59.2 °F 45% 30.17 in 10.0 mi NNE 9.2 mph - N/A   Clear
11:55 AM 82.9 °F 83.2 °F 59.9 °F 46% 30.16 in 10.0 mi NNE 10.4 mph - N/A   Clear
12:55 PM 83.8 °F 83.8 °F 59.7 °F 44% 30.14 in 10.0 mi ENE 9.2 mph - N/A   Clear
1:55 PM 84.6 °F 84.8 °F 61.3 °F 45% 30.12 in 10.0 mi NE 10.4 mph - N/A   Clear
2:55 PM 83.7 °F 83.9 °F 61.2 °F 46% 30.10 in 10.0 mi NNE 10.4 mph - N/A   Partly Cloudy
3:55 PM 83.8 °F 84.7 °F 62.6 °F 49% 30.09 in 10.0 mi NE 8.1 mph - N/A   Clear
4:55 PM 82.8 °F 83.4 °F 61.7 °F 49% 30.08 in 10.0 mi NNE 11.5 mph - N/A   Clear
5:55 PM 81.1 °F 82.0 °F 61.3 °F 51% 30.08 in 10.0 mi NNE 11.5 mph - N/A   Partly Cloudy
6:55 PM 79.5 °F - 61.5 °F 54% 30.09 in 10.0 mi NE 9.2 mph - N/A   Partly Cloudy
7:55 PM 78.8 °F - 62.2 °F 57% 30.10 in 10.0 mi NE 11.5 mph - N/A   Partly Cloudy
8:55 PM 78.4 °F - 62.8 °F 58% 30.11 in 10.0 mi NNE 9.2 mph - N/A   Clear
9:55 PM 78.8 °F - 64.9 °F 62% 30.12 in 10.0 mi NE 10.4 mph - N/A   Scattered Clouds
10:55 PM 78.3 °F - 63.9 °F 61% 30.12 in 10.0 mi ENE 13.8 mph - N/A   Partly Cloudy
11:55 PM 77.7 °F - 62.4 °F 59% 30.12 in 10.0 mi NE 12.7 mph - N/A   Scattered Clouds